Flag for Thailand Weather past 2 weeks in Chiang Rai, Thailand

Now
77 °F

Scattered clouds.


Feels Like: 79 °F
Forecast: 73 / 100 °F
Wind: 2 mph from South

Location: Chiang Mai Airport

Current Time: May 7, 2015 at 6:49:37 AM

Latest Report: May 7, 2015 at 6:00 AM


Visibility: N/A

Pressure: 29.83 "Hg

Humidity: 79%

Dew point: 70 °F

Location of Chiang RaiLocation

Historic Weather in Chiang Rai — Graph

°F

Chiang Rai temperature yesterday

Maximum temperature yesterday: 99 °F (at 3:30 PM)
Minimum temperature yesterday: 73 °F (at 5:00 AM)
Average temperature yesterday: 86 °F

Past Weeks' High & Low Weather Summary

 TemperatureHumidityPressure
High100 °F (May 4, 3:00 PM)94% (Apr 23, 11:30 PM)30.09 "Hg (Apr 23, 11:30 PM)
Low70 °F (Apr 23, 8:00 PM)23% (May 1, 5:00 PM)29.65 "Hg (May 5, 6:00 PM)
Average85 °F54%29.88 "Hg
* Reported Apr 22 5:00 AM — May 7 5:30 AM, Chiang Rai, Weather by CustomWeather, © 2015

Note: Actual official high and low records may vary slightly from our data, if they occured in-between our weather recording intervals... More about our weather records

Advertising

Chiang Rai weather history for previous 24 hours

 ConditionsComfort  
Time TempWeatherWind HumidityBarometerVisibility
5:30 AM
Thu, May 7
77 °FPassing clouds.3 mph79%29.83 "HgN/A
5:00 AM77 °FPassing clouds.No wind79%29.80 "HgN/A
3:30 AM79 °FPassing clouds.7 mph70%29.77 "HgN/A
3:00 AM77 °FPassing clouds.7 mph74%29.77 "HgN/A
2:30 AM77 °FPassing clouds.6 mph74%29.80 "HgN/A
2:00 AM79 °FPassing clouds.7 mph74%29.80 "HgN/A
1:30 AM79 °FPassing clouds.3 mph74%29.83 "HgN/A
12:30 AM79 °FPassing clouds.7 mph74%29.86 "HgN/A
12:00 AM79 °FPassing clouds.6 mph74%29.86 "HgN/A
11:30 PM
Wed, May 6
79 °FPassing clouds.2 mph79%29.89 "HgN/A
11:00 PM79 °FPassing clouds.2 mph74%29.89 "HgN/A
10:30 PM79 °FThunderstorms. Passing clouds.8 mph70%29.86 "HgN/A
10:00 PM81 °FThunderstorms. Passing clouds.7 mph62%29.86 "Hg4 mi
9:30 PM82 °FThunderstorms. Passing clouds.7 mph58%29.83 "Hg5 mi
9:00 PM84 °FThunderstorms. Passing clouds.7 mph51%29.80 "HgN/A
8:30 PM84 °FThunderstorms. Passing clouds.15 mph51%29.77 "HgN/A
8:00 PM86 °FPassing clouds.14 mph52%29.77 "HgN/A
7:30 PM86 °FPassing clouds.6 mph52%29.74 "HgN/A
7:00 PM88 °FPassing clouds.13 mph49%29.74 "HgN/A
6:30 PM90 °FPartly sunny.5 mph43%29.68 "HgN/A
6:00 PM88 °FPartly sunny.9 mph49%29.68 "HgN/A
5:30 PM84 °FThunderstorms. Partly sunny.12 mph55%29.68 "HgN/A
5:00 PM86 °FThunderstorms. Partly sunny.15 mph52%29.68 "HgN/A
4:30 PM97 °FThunderstorms. Partly sunny.2 mph37%29.71 "HgN/A
4:00 PM97 °FPartly sunny.2 mph37%29.68 "HgN/A
3:30 PM99 °FScattered clouds.6 mph35%29.65 "HgN/A
3:00 PM97 °FScattered clouds.6 mph37%29.71 "HgN/A
2:30 PM97 °FPassing clouds.7 mph37%29.74 "HgN/A
2:00 PM97 °FPassing clouds.9 mph39%29.77 "HgN/A
1:30 PM97 °FScattered clouds.5 mph39%29.77 "HgN/A
1:00 PM95 °FScattered clouds.6 mph41%29.80 "HgN/A
12:30 PM95 °FScattered clouds.3 mph41%29.80 "HgN/A
12:00 PM93 °FScattered clouds.5 mph47%29.83 "HgN/A
11:30 AM91 °FScattered clouds.5 mph46%29.83 "HgN/A
10:30 AM90 °FScattered clouds.5 mph49%29.83 "HgN/A
10:00 AM90 °FScattered clouds.5 mph49%29.86 "HgN/A
9:30 AM88 °FScattered clouds.2 mph52%29.86 "HgN/A
9:00 AM86 °FScattered clouds.2 mph55%29.86 "HgN/A
8:30 AM86 °FScattered clouds.2 mph55%29.86 "HgN/A
8:00 AM82 °FScattered clouds.2 mph62%29.83 "HgN/A
7:30 AM82 °FScattered clouds.No wind62%29.83 "HgN/A
7:00 AM81 °FPartly sunny.2 mph66%29.83 "HgN/A
6:30 AM79 °FPartly sunny.3 mph70%29.80 "HgN/A
6:00 AM79 °FScattered clouds.1 mph65%29.80 "HgN/A
Weather by CustomWeather, © 2015

See weather overviewHow to use our weather pages